Time,TemperatureF,DewpointF,PressureIn,WindDirection,WindDirectionDegrees,WindSpeedMPH,WindSpeedGustMPH,Humidity,HourlyPrecipIn,Conditions,Clouds,dailyrainin,SoftwareType,DateUTC
2013-07-04 00:02:00,49.0,-99.9,29.99,SE,125,3.0,4.0,-999,-99.99,,,-99.99,,2013-07-04 08:02:00,
2013-07-04 00:12:00,49.0,-99.9,29.99,ESE,104,2.0,5.0,-999,-99.99,,,-99.99,,2013-07-04 08:12:00,
2013-07-04 00:33:00,49.0,-99.9,29.99,ESE,120,3.0,6.0,-999,-99.99,,,-99.99,,2013-07-04 08:33:00,
2013-07-04 00:43:00,49.0,-99.9,29.98,SE,124,4.0,5.0,-999,-99.99,,,-99.99,,2013-07-04 08:43:00,
2013-07-04 00:53:00,49.0,-99.9,29.98,SE,142,4.0,6.0,-999,-99.99,,,-99.99,,2013-07-04 08:53:00,
2013-07-04 01:02:00,50.0,-99.9,29.98,SSE,161,8.0,15.0,-999,-99.99,,,-99.99,,2013-07-04 09:02:00,
2013-07-04 01:11:00,50.0,-99.9,29.98,SSE,161,8.0,15.0,-999,-99.99,,,-99.99,,2013-07-04 09:11:00,
2013-07-04 01:42:00,51.0,-99.9,29.98,SSE,161,11.0,18.0,-999,-99.99,,,-99.99,,2013-07-04 09:42:00,
2013-07-04 01:52:00,50.0,-99.9,29.98,SSE,149,7.0,12.0,-999,-99.99,,,-99.99,,2013-07-04 09:52:00,
2013-07-04 02:01:00,51.0,-99.9,29.98,SSE,162,13.0,15.0,-999,-99.99,,,-99.99,,2013-07-04 10:01:00,
2013-07-04 02:11:00,50.0,-99.9,29.99,SSE,150,11.0,16.0,-999,-99.99,,,-99.99,,2013-07-04 10:11:00,
2013-07-04 02:22:00,50.0,-99.9,29.99,SSE,150,11.0,16.0,-999,-99.99,,,-99.99,,2013-07-04 10:22:00,
2013-07-04 02:34:00,50.0,-99.9,29.98,SSE,152,12.0,15.0,-999,-99.99,,,-99.99,,2013-07-04 10:34:00,
2013-07-04 02:43:00,50.0,-99.9,29.99,SSE,159,8.0,12.0,-999,-99.99,,,-99.99,,2013-07-04 10:43:00,
2013-07-04 02:53:00,50.0,-99.9,29.99,South,177,8.0,13.0,-999,-99.99,,,-99.99,,2013-07-04 10:53:00,
2013-07-04 03:02:00,50.0,-99.9,29.99,South,179,6.0,10.0,-999,-99.99,,,-99.99,,2013-07-04 11:02:00,
2013-07-04 03:12:00,50.0,-99.9,29.99,South,190,4.0,6.0,-999,-99.99,,,-99.99,,2013-07-04 11:12:00,
2013-07-04 03:22:00,49.0,-99.9,29.99,SSE,149,6.0,8.0,-999,-99.99,,,-99.99,,2013-07-04 11:22:00,
2013-07-04 03:34:00,49.0,-99.9,29.99,SSE,155,7.0,9.0,-999,-99.99,,,-99.99,,2013-07-04 11:34:00,
2013-07-04 03:43:00,49.0,-99.9,29.99,SSE,163,5.0,8.0,-999,-99.99,,,-99.99,,2013-07-04 11:43:00,
2013-07-04 03:53:00,49.0,-99.9,29.99,SSE,154,4.0,6.0,-999,-99.99,,,-99.99,,2013-07-04 11:53:00,
2013-07-04 04:02:00,49.0,-99.9,29.99,SSE,152,5.0,7.0,-999,-99.99,,,-99.99,,2013-07-04 12:02:00,
2013-07-04 04:12:00,49.0,-99.9,29.99,SE,129,3.0,5.0,-999,-99.99,,,-99.99,,2013-07-04 12:12:00,
2013-07-04 04:33:00,49.0,-99.9,29.99,SSE,148,6.0,8.0,-999,-99.99,,,-99.99,,2013-07-04 12:33:00,
2013-07-04 04:43:00,49.0,-99.9,29.99,SSE,154,6.0,11.0,-999,-99.99,,,-99.99,,2013-07-04 12:43:00,
2013-07-04 05:12:00,49.0,-99.9,29.99,SSE,149,9.0,13.0,-999,-99.99,,,-99.99,,2013-07-04 13:12:00,
2013-07-04 05:23:00,49.0,-99.9,29.99,SSE,149,9.0,13.0,-999,-99.99,,,-99.99,,2013-07-04 13:23:00,
2013-07-04 05:33:00,49.0,-99.9,29.99,SSE,149,9.0,13.0,-999,-99.99,,,-99.99,,2013-07-04 13:33:00,
2013-07-04 06:33:00,49.0,-99.9,29.99,SSE,162,2.0,3.0,-999,-99.99,,,-99.99,,2013-07-04 14:33:00,
2013-07-04 06:43:00,49.0,-99.9,29.99,SE,141,3.0,6.0,-999,-99.99,,,-99.99,,2013-07-04 14:43:00,
2013-07-04 07:11:00,49.0,-99.9,29.99,South,183,2.0,3.0,-999,-99.99,,,-99.99,,2013-07-04 15:11:00,
2013-07-04 07:33:00,50.0,-99.9,29.99,SSW,194,4.0,6.0,-999,-99.99,,,-99.99,,2013-07-04 15:33:00,
2013-07-04 07:43:00,51.0,-99.9,30.00,South,190,3.0,5.0,-999,-99.99,,,-99.99,,2013-07-04 15:43:00,
2013-07-04 07:53:00,50.0,-99.9,30.00,South,172,7.0,8.0,-999,-99.99,,,-99.99,,2013-07-04 15:53:00,
2013-07-04 08:02:00,51.0,-99.9,30.00,South,176,6.0,9.0,-999,-99.99,,,-99.99,,2013-07-04 16:02:00,
2013-07-04 08:11:00,51.0,-99.9,29.99,South,172,6.0,7.0,-999,-99.99,,,-99.99,,2013-07-04 16:11:00,
2013-07-04 08:22:00,51.0,-99.9,29.99,South,172,6.0,7.0,-999,-99.99,,,-99.99,,2013-07-04 16:22:00,
2013-07-04 08:33:00,50.0,-99.9,30.00,SE,139,3.0,3.0,-999,-99.99,,,-99.99,,2013-07-04 16:33:00,
2013-07-04 08:43:00,51.0,-99.9,30.00,SSE,154,5.0,6.0,-999,-99.99,,,-99.99,,2013-07-04 16:43:00,
2013-07-04 08:52:00,51.0,-99.9,30.00,SSE,165,5.0,6.0,-999,-99.99,,,-99.99,,2013-07-04 16:52:00,
2013-07-04 09:02:00,52.0,-99.9,30.00,South,176,4.0,6.0,-999,-99.99,,,-99.99,,2013-07-04 17:02:00,
2013-07-04 09:12:00,52.0,-99.9,30.00,South,170,6.0,7.0,-999,-99.99,,,-99.99,,2013-07-04 17:12:00,
2013-07-04 09:34:00,53.0,-99.9,30.00,SSE,155,4.0,5.0,-999,-99.99,,,-99.99,,2013-07-04 17:34:00,
2013-07-04 09:43:00,53.0,-99.9,30.00,SE,146,5.0,7.0,-999,-99.99,,,-99.99,,2013-07-04 17:43:00,
2013-07-04 09:53:00,53.0,-99.9,30.00,South,171,4.0,6.0,-999,-99.99,,,-99.99,,2013-07-04 17:53:00,
2013-07-04 10:01:00,53.0,-99.9,30.00,SSE,166,7.0,9.0,-999,-99.99,,,-99.99,,2013-07-04 18:01:00,
2013-07-04 10:22:00,53.0,-99.9,30.00,SSE,167,7.0,8.0,-999,-99.99,,,-99.99,,2013-07-04 18:22:00,
2013-07-04 10:33:00,54.0,-99.9,30.00,SSE,156,4.0,8.0,-999,-99.99,,,-99.99,,2013-07-04 18:33:00,
2013-07-04 10:43:00,54.0,-99.9,30.00,SSE,156,4.0,8.0,-999,-99.99,,,-99.99,,2013-07-04 18:43:00,
2013-07-04 10:52:00,54.0,-99.9,30.00,SSE,156,4.0,8.0,-999,-99.99,,,-99.99,,2013-07-04 18:52:00,
2013-07-04 11:02:00,55.0,-99.9,30.00,South,180,4.0,9.0,-999,-99.99,,,-99.99,,2013-07-04 19:02:00,
2013-07-04 11:12:00,55.0,-99.9,30.01,SSE,166,9.0,10.0,-999,-99.99,,,-99.99,,2013-07-04 19:12:00,
2013-07-04 11:53:00,55.0,-99.9,30.01,SSE,167,10.0,12.0,-999,-99.99,,,-99.99,,2013-07-04 19:53:00,
2013-07-04 12:02:00,55.0,-99.9,30.01,SSE,168,9.0,11.0,-999,-99.99,,,-99.99,,2013-07-04 20:02:00,
2013-07-04 12:11:00,55.0,-99.9,30.01,South,171,9.0,12.0,-999,-99.99,,,-99.99,,2013-07-04 20:11:00,
2013-07-04 12:34:00,56.0,-99.9,30.01,South,191,5.0,7.0,-999,-99.99,,,-99.99,,2013-07-04 20:34:00,
2013-07-04 12:42:00,56.0,-99.9,30.01,South,183,7.0,9.0,-999,-99.99,,,-99.99,,2013-07-04 20:42:00,
2013-07-04 12:53:00,56.0,-99.9,30.01,South,178,6.0,8.0,-999,-99.99,,,-99.99,,2013-07-04 20:53:00,
2013-07-04 13:01:00,55.0,-99.9,30.01,South,169,6.0,7.0,-999,-99.99,,,-99.99,,2013-07-04 21:01:00,
2013-07-04 13:53:00,54.0,-99.9,30.02,South,172,9.0,12.0,-999,-99.99,,,-99.99,,2013-07-04 21:53:00,
2013-07-04 14:02:00,54.0,-99.9,30.02,SSE,168,10.0,12.0,-999,-99.99,,,-99.99,,2013-07-04 22:02:00,
2013-07-04 14:12:00,54.0,-99.9,30.02,SSE,164,10.0,11.0,-999,-99.99,,,-99.99,,2013-07-04 22:12:00,
2013-07-04 14:22:00,55.0,-99.9,30.02,SSE,161,8.0,10.0,-999,-99.99,,,-99.99,,2013-07-04 22:22:00,
2013-07-04 14:33:00,55.0,-99.9,30.02,SSE,165,7.0,10.0,-999,-99.99,,,-99.99,,2013-07-04 22:33:00,
2013-07-04 14:43:00,55.0,-99.9,30.02,South,169,5.0,7.0,-999,-99.99,,,-99.99,,2013-07-04 22:43:00,
2013-07-04 14:52:00,55.0,-99.9,30.02,SSE,161,5.0,7.0,-999,-99.99,,,-99.99,,2013-07-04 22:52:00,
2013-07-04 15:02:00,55.0,-99.9,30.02,SSE,163,6.0,8.0,-999,-99.99,,,-99.99,,2013-07-04 23:02:00,
2013-07-04 15:12:00,54.0,-99.9,30.02,South,172,7.0,9.0,-999,-99.99,,,-99.99,,2013-07-04 23:12:00,
2013-07-04 15:23:00,54.0,-99.9,30.03,South,171,7.0,10.0,-999,-99.99,,,-99.99,,2013-07-04 23:23:00,
2013-07-04 15:43:00,55.0,-99.9,30.03,South,173,7.0,9.0,-999,-99.99,,,-99.99,,2013-07-04 23:43:00,
2013-07-04 16:01:00,54.0,-99.9,30.03,South,187,5.0,8.0,-999,-99.99,,,-99.99,,2013-07-05 00:01:00,
2013-07-04 16:12:00,54.0,-99.9,30.03,South,187,5.0,8.0,-999,-99.99,,,-99.99,,2013-07-05 00:12:00,
2013-07-04 16:32:00,55.0,-99.9,30.03,South,186,6.0,9.0,-999,-99.99,,,-99.99,,2013-07-05 00:32:00,
2013-07-04 16:43:00,55.0,-99.9,30.03,South,170,7.0,9.0,-999,-99.99,,,-99.99,,2013-07-05 00:43:00,
2013-07-04 16:52:00,55.0,-99.9,30.03,South,176,5.0,9.0,-999,-99.99,,,-99.99,,2013-07-05 00:52:00,
2013-07-04 17:01:00,55.0,-99.9,30.03,South,170,6.0,7.0,-999,-99.99,,,-99.99,,2013-07-05 01:01:00,
2013-07-04 17:11:00,55.0,-99.9,30.03,SSW,192,5.0,6.0,-999,-99.99,,,-99.99,,2013-07-05 01:11:00,
2013-07-04 17:22:00,56.0,-99.9,30.03,SSW,194,4.0,5.0,-999,-99.99,,,-99.99,,2013-07-05 01:22:00,
2013-07-04 17:32:00,55.0,-99.9,30.03,SSW,194,3.0,6.0,-999,-99.99,,,-99.99,,2013-07-05 01:32:00,
2013-07-04 17:42:00,55.0,-99.9,30.03,SSE,152,5.0,6.0,-999,-99.99,,,-99.99,,2013-07-05 01:42:00,
2013-07-04 17:52:00,55.0,-99.9,30.03,SSE,158,3.0,6.0,-999,-99.99,,,-99.99,,2013-07-05 01:52:00,
2013-07-04 18:02:00,55.0,-99.9,30.03,SSE,162,5.0,7.0,-999,-99.99,,,-99.99,,2013-07-05 02:02:00,
2013-07-04 18:11:00,55.0,-99.9,30.03,South,181,5.0,8.0,-999,-99.99,,,-99.99,,2013-07-05 02:11:00,
2013-07-04 18:22:00,55.0,-99.9,30.03,South,174,6.0,9.0,-999,-99.99,,,-99.99,,2013-07-05 02:22:00,
2013-07-04 18:32:00,55.0,-99.9,30.03,South,183,5.0,7.0,-999,-99.99,,,-99.99,,2013-07-05 02:32:00,
2013-07-04 18:43:00,54.0,-99.9,30.03,SSW,199,5.0,8.0,-999,-99.99,,,-99.99,,2013-07-05 02:43:00,
2013-07-04 18:53:00,54.0,-99.9,30.03,SSW,202,5.0,7.0,-999,-99.99,,,-99.99,,2013-07-05 02:53:00,
2013-07-04 19:02:00,54.0,-99.9,30.03,South,185,4.0,6.0,-999,-99.99,,,-99.99,,2013-07-05 03:02:00,
2013-07-04 19:11:00,54.0,-99.9,30.02,SSE,166,3.0,5.0,-999,-99.99,,,-99.99,,2013-07-05 03:11:00,
2013-07-04 19:22:00,54.0,-99.9,30.03,South,173,4.0,5.0,-999,-99.99,,,-99.99,,2013-07-05 03:22:00,
2013-07-04 19:33:00,54.0,-99.9,30.03,South,189,3.0,5.0,-999,-99.99,,,-99.99,,2013-07-05 03:33:00,
2013-07-04 19:42:00,55.0,-99.9,30.03,SSW,195,3.0,6.0,-999,-99.99,,,-99.99,,2013-07-05 03:42:00,
2013-07-04 19:52:00,54.0,-99.9,30.03,SSE,163,3.0,4.0,-999,-99.99,,,-99.99,,2013-07-05 03:52:00,
2013-07-04 20:01:00,54.0,-99.9,30.03,SSE,148,2.0,3.0,-999,-99.99,,,-99.99,,2013-07-05 04:01:00,
2013-07-04 20:12:00,54.0,-99.9,30.03,SE,141,1.0,2.0,-999,-99.99,,,-99.99,,2013-07-05 04:12:00,
2013-07-04 20:33:00,54.0,-99.9,30.03,NNE,32,2.0,3.0,-999,-99.99,,,-99.99,,2013-07-05 04:33:00,
2013-07-04 20:43:00,54.0,-99.9,30.03,East,94,0.0,1.0,-999,-99.99,,,-99.99,,2013-07-05 04:43:00,
2013-07-04 20:53:00,54.0,-99.9,30.03,East,88,2.0,2.0,-999,-99.99,,,-99.99,,2013-07-05 04:53:00,
2013-07-04 21:01:00,54.0,-99.9,30.04,SE,129,-999.0,2.0,-999,-99.99,,,-99.99,,2013-07-05 05:01:00,
2013-07-04 21:12:00,53.0,-99.9,30.03,SE,146,3.0,4.0,-999,-99.99,,,-99.99,,2013-07-05 05:12:00,
2013-07-04 21:22:00,53.0,-99.9,30.03,South,171,4.0,4.0,-999,-99.99,,,-99.99,,2013-07-05 05:22:00,
2013-07-04 21:33:00,53.0,-99.9,30.04,SSE,161,3.0,4.0,-999,-99.99,,,-99.99,,2013-07-05 05:33:00,
2013-07-04 21:43:00,53.0,-99.9,30.04,SSE,161,2.0,3.0,-999,-99.99,,,-99.99,,2013-07-05 05:43:00,
2013-07-04 21:52:00,53.0,-99.9,30.04,South,172,2.0,4.0,-999,-99.99,,,-99.99,,2013-07-05 05:52:00,
2013-07-04 22:02:00,53.0,-99.9,30.04,South,184,2.0,4.0,-999,-99.99,,,-99.99,,2013-07-05 06:02:00,
2013-07-04 22:13:00,53.0,-99.9,30.04,SSW,204,3.0,4.0,-999,-99.99,,,-99.99,,2013-07-05 06:13:00,
2013-07-04 22:23:00,53.0,-99.9,30.04,SSW,209,3.0,5.0,-999,-99.99,,,-99.99,,2013-07-05 06:23:00,
2013-07-04 22:34:00,53.0,-99.9,30.04,SSW,204,4.0,5.0,-999,-99.99,,,-99.99,,2013-07-05 06:34:00,
2013-07-04 22:44:00,53.0,-99.9,30.04,SSW,194,3.0,4.0,-999,-99.99,,,-99.99,,2013-07-05 06:44:00,
2013-07-04 22:53:00,52.0,-99.9,30.05,SSW,192,3.0,4.0,-999,-99.99,,,-99.99,,2013-07-05 06:53:00,
2013-07-04 23:02:00,52.0,-99.9,30.05,SSW,201,4.0,4.0,-999,-99.99,,,-99.99,,2013-07-05 07:02:00,
2013-07-04 23:12:00,52.0,-99.9,30.06,South,172,3.0,5.0,-999,-99.99,,,-99.99,,2013-07-05 07:12:00,
2013-07-04 23:23:00,51.0,-99.9,30.06,ESE,120,2.0,4.0,-999,-99.99,,,-99.99,,2013-07-05 07:23:00,
2013-07-04 23:34:00,51.0,-99.9,30.05,SSE,166,1.0,3.0,-999,-99.99,,,-99.99,,2013-07-05 07:34:00,
2013-07-04 23:43:00,51.0,-99.9,30.05,SSE,157,1.0,2.0,-999,-99.99,,,-99.99,,2013-07-05 07:43:00,
2013-07-04 23:53:00,51.0,-99.9,30.06,South,178,2.0,2.0,-999,-99.99,,,-99.99,,2013-07-05 07:53:00,